Regional Weather Roundup
Issued by NWS Little Rock, AR

Home | Current Version | Previous Version | Text Only | Print | Product List | Glossary Off
Versions: 1 2 3 4 5 6 7 8 9 10 11 12 13 14 15 16 17 18 19 20 21 22 23 24 25 26 27 28 29 30 31 32 33 34 35 36 37 38 39 40 41 42 43 44 45 46 47 48 49 50

000
ASUS44 KLZK 292105
RWRLZK

WEATHER ROUNDUP FOR ARKANSAS
NATIONAL WEATHER SERVICE LITTLE ROCK AR
400 PM CDT SUN MAR 29 2015

NOTE: "FAIR" INDICATES FEW OR NO CLOUDS BELOW 12,000 FEET WITH NO
SIGNIFICANT WEATHER AND/OR OBSTRUCTIONS TO VISIBILITY.

ARZ001-003-010-029-292200-
NORTHWEST ARKANSAS

CITY           SKY/WX    TMP DP  RH WIND       PRES   REMARKS
FAYETTEVILLE   MOSUNNY   66  48  52 W8        30.01R
FORT SMITH     MOSUNNY   70  45  40 NE7       30.01R
HARRISON       SUNNY     72  43  35 W8        29.96F
BENTONVILLE    PTSUNNY   66  43  42 W10       30.01S
ROGERS         PTSUNNY   66  45  46 W8G18     30.01S
SILOAM SPGS    PTSUNNY   64  45  48 W9        30.02F
HIGHFILL       PTSUNNY   67  45  45 W15       30.00S
SPRINGDALE     PTSUNNY   66  45  45 W8G15     30.03S
$$

ARZ004-005-016-292200-
NORTH CENTRAL ARKANSAS

CITY           SKY/WX    TMP DP  RH WIND       PRES   REMARKS
BATESVILLE     SUNNY     64  46  52 S10       30.01F
FLIPPIN        SUNNY     66  43  42 SE7       29.96F
MTN HOME       MOSUNNY   65  43  44 S9        29.96F
$$

ARZ040-041-292200-
WEST CENTRAL ARKANSAS

CITY           SKY/WX    TMP DP  RH WIND       PRES   REMARKS
MENA           SUNNY     77  50  38 SW7       30.01F
MOUNT IDA      SUNNY     74  48  39 VRB7      29.98F
$$

ARZ009-017-025-026-028-292200-
NORTHEAST ARKANSAS

CITY           SKY/WX    TMP DP  RH WIND       PRES   REMARKS
CORNING          N/A     57  48  72 SW18      30.02F
JONESBORO      SUNNY     60  49  66 SW15      30.03F
NEWPORT        SUNNY     63  50  62 S18       30.04F
BLYTHEVILLE    SUNNY     62  45  53 S15       30.05F
$$

ARZ022-023-033-042-044-292200-
CENTRAL ARKANSAS

CITY           SKY/WX    TMP DP  RH WIND       PRES   REMARKS
LITTLE ROCK    SUNNY     77  47  34 S10G17    30.01F
N LITTLE ROCK  SUNNY     73  52  48 SW9       30.01F
JACKSONVILLE   SUNNY     73  49  43 VRB5      30.01F
SEARCY         SUNNY     67  51  56 S13G22    30.03F
HOT SPRINGS    SUNNY     76  49  38 SW12      30.00F
RUSSELLVILLE   SUNNY     67  50  54 E7        29.99F
CLINTON        FAIR      64  48  55 SE8       30.01F
$$

ARZ036-292200-
EAST ARKANSAS

CITY           SKY/WX    TMP DP  RH WIND       PRES   REMARKS
WEST MEMPHIS   SUNNY     65  51  60 S18       30.05F
$$

ARZ050-053-066-070-073-292200-
SOUTHWEST ARKANSAS

CITY           SKY/WX    TMP DP  RH WIND       PRES   REMARKS
ARKADELPHIA    FAIR      80  57  45 S10       30.00F
CAMDEN         SUNNY     82  52  34 MISG      30.01F
TEXARKANA      SUNNY     83  51  33 SW16G24   29.99F
EL DORADO      SUNNY     82  52  35 S18G24    30.02F
DE QUEEN       SUNNY     78  53  41 SW6G18    29.97F
$$

ARZ056-057-069-292200-
SOUTHEAST ARKANSAS

CITY           SKY/WX    TMP DP  RH WIND       PRES   REMARKS
PINE BLUFF     SUNNY     75  54  47 S14       30.02F
STUTTGART      SUNNY     70  54  56 S14       30.04F
MONTICELLO     SUNNY     77  53  43 S16G22    30.03F

$$




USA.gov is the U.S. government's official web portal to all federal, state and local government web resources and services.